FW2738 Weather Reports


Display with metric or nautical units.
time (UTC)temp
F
wind
direction
speed
MPH
gust
MPH
rain 1hr
in
rain 24hr
in
rain mn
in
humidity
%
barometer
mb
20240621084512 77 113 5.0 9.0 0.00 0.00 0.00 82 1019.0
20240621083012 77 121 5.0 10.0 0.00 0.00 0.00 82 1019.0
20240621081527 77 123 6.0 10.0 0.00 0.00 0.00 81 1019.1
20240621080007 78 107 5.0 9.0 0.00 0.00 0.00 81 1019.1
20240621074504 78 113 4.0 9.0 0.00 0.00 0.00 80 1019.1
20240621073003 78 112 5.0 12.0 0.00 0.00 0.00 80 1019.2
20240621071501 78 124 6.0 10.0 0.00 0.00 0.00 79 1019.2
20240621070100 79 121 7.0 10.0 0.00 0.00 0.00 79 1019.3
20240621064600 79 102 7.0 11.0 0.00 0.00 0.00 79 1019.3
20240621063059 79 115 6.0 10.0 0.00 0.00 0.00 79 1019.3
20240621061559 79 155 6.0 11.0 0.00 0.00 0.00 80 1019.2
20240621060058 79 111 7.0 10.0 0.00 0.00 0.00 80 1019.2
20240621054553 79 120 7.0 11.0 0.00 0.00 0.00 80 1019.3
20240621053051 79 109 7.0 11.0 0.00 0.00 0.00 79 1019.2
20240621051556 79 92 6.0 11.0 0.00 0.00 0.00 79 1019.3
20240621050053 80 109 8.0 12.0 0.00 0.00 0.00 79 1019.3
20240621044555 80 103 7.0 10.0 0.00 0.00 0.00 78 1019.1
20240621043046 80 119 6.0 10.0 0.00 0.00 0.00 78 1019.0
20240621041546 80 132 5.0 10.0 0.00 0.00 0.00 77 1018.9
20240621040046 81 103 5.0 9.0 0.00 0.00 0.00 76 1018.8
20240621034545 81 93 5.0 9.0 0.00 0.00 0.00 76 1018.7
20240621033045 81 124 5.0 9.0 0.00 0.00 0.00 75 1018.5
20240621031545 81 107 5.0 10.0 0.00 0.00 0.00 74 1018.4
20240621030044 82 103 4.0 8.0 0.00 0.00 0.00 73 1018.3
20240621024550 82 94 4.0 8.0 0.00 0.00 0.00 73 1018.2
20240621023049 82 110 3.0 7.0 0.00 0.00 0.00 72 1018.1
20240621021601 83 103 4.0 7.0 0.00 0.00 0.00 72 1017.9
20240621020048 83 93 3.0 6.0 0.00 0.00 0.00 70 1017.8
20240621014541 84 89 2.0 4.0 0.00 0.00 0.00 68 1017.9
20240621013040 84 106 2.0 6.0 0.00 0.00 0.00 66 1017.7
20240621011541 85 117 5.0 8.0 0.00 0.00 0.00 65 1017.7
20240621010046 86 121 8.0 11.0 0.00 0.00 0.00 64 1017.8
20240621004539 86 119 8.0 16.0 0.00 0.00 0.00 64 1017.8
20240621003039 87 119 9.0 13.0 0.00 0.00 0.00 63 1017.8
20240621001539 88 123 9.0 13.0 0.00 0.00 0.00 62 1017.7
20240621000038 88 87 7.0 14.0 0.00 0.00 0.00 61 1017.6
20240620234538 88 105 11.0 15.0 0.00 0.00 0.00 61 1017.7
20240620233037 88 95 7.0 14.0 0.00 0.00 0.00 60 1017.6
20240620231535 88 84 6.0 11.0 0.00 0.00 0.00 60 1017.6
20240620230035 88 108 8.0 13.0 0.00 0.00 0.00 60 1017.7
20240620224534 89 94 4.0 13.0 0.00 0.00 0.00 60 1017.7
20240620223037 89 95 6.0 13.0 0.00 0.00 0.00 59 1018.1
20240620221538 89 104 9.0 12.0 0.00 0.00 0.00 59 1018.3
20240620220033 89 77 10.0 14.0 0.00 0.00 0.00 59 1018.4
20240620214533 89 101 10.0 15.0 0.00 0.00 0.00 55 1018.5
20240620213031 89 95 8.0 13.0 0.00 0.00 0.00 60 1018.7
20240620211529 89 55 7.0 13.0 0.00 0.00 0.00 59 1018.8
20240620210033 89 76 7.0 16.0 0.00 0.00 0.00 60 1019.0
20240620204527 88 140 8.0 16.0 0.00 0.00 0.00 61 1019.2
20240620203040 88 111 5.0 11.0 0.00 0.00 0.00 62 1019.2
20240620201533 89 88 7.0 15.0 0.00 0.00 0.00 60 1019.3
20240620200023 87 126 5.0 10.0 0.00 0.00 0.00 63 1019.6
20240620194533 87 111 8.0 14.0 0.00 0.00 0.00 64 1019.7
20240620193023 87 131 11.0 15.0 0.00 0.00 0.00 64 1019.8
20240620191541 86 99 6.0 12.0 0.00 0.00 0.00 66 1020.0
20240620190020 87 50 8.0 14.0 0.00 0.00 0.00 65 1019.9
20240620184517 86 84 9.0 12.0 0.00 0.00 0.00 67 1020.3
20240620183016 85 111 8.0 12.0 0.00 0.00 0.00 69 1020.6
20240620181520 85 89 8.0 14.0 0.00 0.00 0.00 69 1020.7
20240620180018 85 100 7.0 15.0 0.00 0.00 0.00 68 1020.7
20240620174513 85 111 6.0 14.0 0.00 0.00 0.00 68 1020.8
20240620173013 85 99 7.0 13.0 0.00 0.00 0.00 69 1020.9
20240620171512 85 105 7.0 12.0 0.00 0.00 0.00 69 1020.9
20240620170012 85 96 8.0 13.0 0.00 0.00 0.00 70 1021.1
20240620164509 84 86 7.0 11.0 0.00 0.00 0.00 71 1021.1
20240620163008 84 96 7.0 12.0 0.00 0.00 0.00 72 1021.0
20240620161511 83 97 5.0 11.0 0.00 0.00 0.00 74 1021.1
20240620160006 82 143 7.0 10.0 0.00 0.00 0.00 73 1021.1
20240620154513 83 109 5.0 10.0 0.00 0.00 0.00 73 1021.2
20240620153005 83 144 7.0 13.0 0.00 0.00 0.00 75 1021.2
20240620151515 83 134 6.0 13.0 0.00 0.00 0.00 74 1021.2
20240620150004 84 125 9.0 15.0 0.00 0.00 0.00 73 1020.9
20240620144559 83 139 8.0 13.0 0.00 0.00 0.00 76 1020.6
20240620143056 82 141 11.0 16.0 0.00 0.00 0.00 77 1020.6
20240620141554 80 168 8.0 16.0 0.00 0.00 0.00 80 1020.7
20240620140050 79 108 8.0 15.0 0.00 0.00 0.00 84 1020.4
20240620134604 79 117 10.0 18.0 0.00 0.00 0.00 84 1020.2
20240620133043 78 82 10.0 15.0 0.00 0.00 0.00 85 1019.9
20240620131541 77 131 8.0 17.0 0.00 0.00 0.00 88 1019.7
20240620130039 77 111 7.0 15.0 0.00 0.00 0.00 90 1019.6
20240620124537 76 82 10.0 18.0 0.00 0.00 0.00 91 1019.4
20240620123036 76 71 8.0 11.0 0.00 0.00 0.00 92 1019.2
20240620121534 75 79 5.0 11.0 0.00 0.00 0.00 93 1018.9
20240620120044 75 109 8.0 13.0 0.00 0.00 0.00 93 1018.8
20240620114534 75 107 6.0 10.0 0.00 0.00 0.00 92 1018.8
20240620113031 75 79 6.0 11.0 0.00 0.00 0.00 92 1018.8
20240620111532 75 76 5.0 9.0 0.00 0.00 0.00 92 1018.7
20240620110029 75 92 5.0 10.0 0.00 0.00 0.00 91 1018.7
20240620104527 76 86 4.0 9.0 0.00 0.00 0.00 91 1018.5
20240620103026 76 90 4.0 12.0 0.00 0.00 0.00 91 1018.2
20240620101539 76 76 5.0 11.0 0.00 0.00 0.00 90 1018.1
20240620100023 76 75 6.0 11.0 0.00 0.00 0.00 90 1018.1
20240620094532 76 69 5.0 10.0 0.00 0.00 0.00 90 1018.1
20240620093021 76 81 8.0 11.0 0.00 0.00 0.00 90 1018.0
20240620091520 76 81 6.0 11.0 0.00 0.00 0.00 90 1017.9
20240620090020 76 85 5.0 10.0 0.00 0.00 0.00 89 1017.8